When you browse on this site, cookies collect data to enhance your experience and personalize the content and advertising you see.
Visit our Privacy Policy to learn more. By continuing to use the site, you agree to this use of cookies and data.
  • Em Portugal
  • Lista de países
  • Para 7 dias
  • Temperatura da água
  • Mapas de satélite
  • Mapa do tempo
  • Widgets de tempo
  • user-avatar
    Iniciar Sessão

    Previsão horária em Debiny

    Hoje, 25 Março, Segunda-feira

    Tempo Temperatura Precipitação Vento Pressão Humidade
    00:00 +7°C° 0 mm 1 m/s 747 mmHg 59%
    01:00 +5°C° 0 mm 0 m/s 746 mmHg 63%
    02:00 +6°C° 0 mm 1 m/s 746 mmHg 64%
    03:00 +5°C° 0 mm 1 m/s 746 mmHg 65%
    04:00 +5°C° 0 mm 1 m/s 745 mmHg 66%
    05:00 +5°C° 0 mm 1 m/s 745 mmHg 66%
    06:00 +5°C° 0 mm 1 m/s 744 mmHg 66%
    07:00 +6°C° 0 mm 1 m/s 744 mmHg 66%
    08:00 +6°C° 0 mm 2 m/s 744 mmHg 61%
    09:00 +7°C° 0 mm 2 m/s 743 mmHg 55%
    10:00 +9°C° 0 mm 3 m/s 743 mmHg 49%
    11:00 +9°C° 0.3 mm 3 m/s 743 mmHg 50%
    12:00 +8°C° 0.3 mm 4 m/s 742 mmHg 50%
    13:00 +8°C° 0.3 mm 4 m/s 742 mmHg 50%
    14:00 +8°C° 0.2 mm 4 m/s 742 mmHg 51%
    15:00 +7°C° 0.2 mm 4 m/s 742 mmHg 52%
    16:00 +7°C° 0.2 mm 4 m/s 742 mmHg 53%
    17:00 +7°C° 0 mm 3 m/s 743 mmHg 58%
    18:00 +6°C° 0 mm 2 m/s 743 mmHg 64%
    19:00 +5°C° 0 mm 2 m/s 743 mmHg 70%
    20:00 +5°C° 0.1 mm 2 m/s 744 mmHg 71%
    21:00 +5°C° 0.1 mm 2 m/s 744 mmHg 73%
    22:00 +4°C° 0.1 mm 2 m/s 745 mmHg 75%
    23:00 +3°C° 0 mm 3 m/s 746 mmHg 78%

    Amanhã, 26 Março, Terça-feira

    Tempo Temperatura Precipitação Vento Pressão Humidade
    00:00 +2°C° 0 mm 3 m/s 746 mmHg 81%
    01:00 +1°C° 0 mm 3 m/s 747 mmHg 84%
    02:00 +1°C° 0 mm 3 m/s 747 mmHg 87%
    03:00 0°C° 0 mm 3 m/s 747 mmHg 90%
    04:00 0°C° 0 mm 3 m/s 748 mmHg 93%
    05:00 0°C° 0 mm 3 m/s 748 mmHg 92%
    06:00 -1°C° 0 mm 4 m/s 748 mmHg 90%
    07:00 0°C° 0 mm 4 m/s 749 mmHg 89%
    08:00 +1°C° 0 mm 5 m/s 749 mmHg 80%
    09:00 +3°C° 0 mm 5 m/s 749 mmHg 71%
    10:00 +4°C° 0 mm 6 m/s 749 mmHg 62%
    11:00 +5°C° 0.1 mm 7 m/s 748 mmHg 61%
    12:00 +5°C° 0.1 mm 8 m/s 748 mmHg 59%
    13:00 +5°C° 0.1 mm 9 m/s 747 mmHg 58%
    14:00 +5°C° 0.2 mm 9 m/s 747 mmHg 59%
    15:00 +3°C° 0.2 mm 9 m/s 747 mmHg 60%
    16:00 +3°C° 0.2 mm 10 m/s 746 mmHg 61%
    17:00 +2°C° 0.2 mm 9 m/s 747 mmHg 64%
    18:00 +1°C° 0.2 mm 9 m/s 748 mmHg 67%
    19:00 +1°C° 0.2 mm 8 m/s 749 mmHg 70%
    20:00 -1°C° 0 mm 7 m/s 749 mmHg 68%
    21:00 -2°C° 0 mm 6 m/s 750 mmHg 65%
    22:00 -4°C° 0 mm 5 m/s 751 mmHg 63%
    23:00 -4°C° 0 mm 5 m/s 752 mmHg 65%

    Depois de amanhã, 27 Março, Quarta-feira

    Tempo Temperatura Precipitação Vento Pressão Humidade
    00:00 -3°C° 0 mm 4 m/s 752 mmHg 67%
    01:00 -3°C° 0 mm 4 m/s 753 mmHg 68%
    02:00 -3°C° 0 mm 4 m/s 753 mmHg 69%
    03:00 -2°C° 0 mm 3 m/s 753 mmHg 70%
    04:00 -2°C° 0 mm 3 m/s 753 mmHg 70%
    05:00 -2°C° 0 mm 3 m/s 754 mmHg 67%
    06:00 -1°C° 0 mm 3 m/s 754 mmHg 64%
    07:00 -1°C° 0 mm 3 m/s 755 mmHg 61%
    08:00 +1°C° 0 mm 3 m/s 755 mmHg 56%
    09:00 +2°C° 0 mm 3 m/s 755 mmHg 50%
    10:00 +4°C° 0 mm 3 m/s 756 mmHg 44%
    11:00 +4°C° 0 mm 3 m/s 756 mmHg 41%
    12:00 +5°C° 0 mm 3 m/s 756 mmHg 38%
    13:00 +7°C° 0 mm 3 m/s 756 mmHg 35%
    14:00 +7°C° 0 mm 3 m/s 756 mmHg 38%
    15:00 +7°C° 0 mm 3 m/s 755 mmHg 41%
    16:00 +7°C° 0 mm 3 m/s 755 mmHg 45%
    17:00 +6°C° 0 mm 2 m/s 756 mmHg 53%
    18:00 +5°C° 0 mm 2 m/s 756 mmHg 60%
    19:00 +5°C° 0 mm 1 m/s 756 mmHg 68%
    20:00 +5°C° 0 mm 1 m/s 756 mmHg 71%
    21:00 +5°C° 0 mm 1 m/s 757 mmHg 74%
    22:00 +5°C° 0 mm 1 m/s 757 mmHg 76%
    23:00 +5°C° 0 mm 1 m/s 757 mmHg 80%

    28 Março, Quinta-feira

    Tempo Temperatura Precipitação Vento Pressão Humidade
    00:00 +4°C° 0 mm 1 m/s 757 mmHg 83%
    01:00 +4°C° 0 mm 1 m/s 757 mmHg 87%
    02:00 +3°C° 0 mm 2 m/s 757 mmHg 88%
    03:00 +3°C° 0 mm 2 m/s 757 mmHg 90%
    04:00 +3°C° 0 mm 2 m/s 757 mmHg 91%
    05:00 +3°C° 0 mm 2 m/s 757 mmHg 90%
    06:00 +4°C° 0 mm 2 m/s 758 mmHg 88%
    07:00 +4°C° 0 mm 3 m/s 758 mmHg 86%
    08:00 +6°C° 0.2 mm 2 m/s 758 mmHg 85%
    09:00 +6°C° 0.2 mm 2 m/s 758 mmHg 85%
    10:00 +7°C° 0.2 mm 2 m/s 758 mmHg 84%
    11:00 +8°C° 0.1 mm 2 m/s 758 mmHg 81%
    12:00 +8°C° 0.1 mm 2 m/s 758 mmHg 79%
    13:00 +9°C° 0.1 mm 2 m/s 758 mmHg 77%
    14:00 +9°C° 0.1 mm 2 m/s 758 mmHg 74%
    15:00 +11°C° 0.1 mm 1 m/s 758 mmHg 71%
    16:00 +11°C° 0.1 mm 1 m/s 758 mmHg 68%
    17:00 +10°C° 0 mm 1 m/s 758 mmHg 73%
    18:00 +8°C° 0 mm 0 m/s 758 mmHg 78%
    19:00 +7°C° 0 mm 0 m/s 759 mmHg 83%
    20:00 +6°C° 0 mm 0 m/s 759 mmHg 85%
    21:00 +7°C° 0 mm 1 m/s 759 mmHg 86%
    22:00 +6°C° 0 mm 1 m/s 759 mmHg 88%
    23:00 +6°C° 0 mm 1 m/s 759 mmHg 88%

    29 Março, Sexta-feira

    Tempo Temperatura Precipitação Vento Pressão Humidade
    00:00 +6°C° 0 mm 1 m/s 760 mmHg 89%
    01:00 +6°C° 0 mm 1 m/s 760 mmHg 90%
    02:00 +5°C° 0 mm 1 m/s 760 mmHg 91%
    03:00 +5°C° 0 mm 1 m/s 760 mmHg 91%
    04:00 +5°C° 0 mm 1 m/s 760 mmHg 92%
    05:00 +5°C° 0 mm 1 m/s 760 mmHg 90%
    06:00 +6°C° 0 mm 1 m/s 760 mmHg 89%
    07:00 +6°C° 0 mm 1 m/s 760 mmHg 87%
    08:00 +7°C° 0 mm 2 m/s 760 mmHg 79%
    09:00 +9°C° 0 mm 2 m/s 760 mmHg 71%
    10:00 +10°C° 0 mm 2 m/s 760 mmHg 64%
    11:00 +12°C° 0 mm 2 m/s 759 mmHg 60%
    12:00 +13°C° 0 mm 2 m/s 759 mmHg 57%
    13:00 +12°C° 0 mm 3 m/s 759 mmHg 53%
    14:00 +12°C° 0 mm 3 m/s 758 mmHg 54%
    15:00 +12°C° 0 mm 3 m/s 758 mmHg 54%
    16:00 +13°C° 0 mm 3 m/s 758 mmHg 54%
    17:00 +12°C° 0 mm 2 m/s 758 mmHg 61%
    18:00 +10°C° 0 mm 2 m/s 757 mmHg 67%
    19:00 +8°C° 0 mm 2 m/s 757 mmHg 73%
    20:00 +8°C° 0 mm 2 m/s 757 mmHg 75%
    21:00 +7°C° 0 mm 2 m/s 757 mmHg 77%
    22:00 +7°C° 0 mm 2 m/s 757 mmHg 79%
    23:00 +6°C° 0 mm 2 m/s 757 mmHg 80%

    30 Março, Sábado

    Tempo Temperatura Precipitação Vento Pressão Humidade
    00:00 +6°C° 0 mm 2 m/s 757 mmHg 82%
    01:00 +5°C° 0 mm 2 m/s 757 mmHg 83%
    02:00 +5°C° 0 mm 2 m/s 757 mmHg 85%
    03:00 +5°C° 0 mm 2 m/s 756 mmHg 86%
    04:00 +5°C° 0 mm 2 m/s 756 mmHg 87%
    05:00 +5°C° 0 mm 2 m/s 756 mmHg 85%
    06:00 +6°C° 0 mm 2 m/s 756 mmHg 82%
    07:00 +7°C° 0 mm 2 m/s 756 mmHg 79%
    08:00 +8°C° 0 mm 2 m/s 756 mmHg 72%
    09:00 +10°C° 0 mm 2 m/s 755 mmHg 64%
    10:00 +12°C° 0 mm 3 m/s 755 mmHg 57%
    11:00 +13°C° 0 mm 3 m/s 755 mmHg 53%
    12:00 +14°C° 0 mm 3 m/s 754 mmHg 50%
    13:00 +16°C° 0 mm 3 m/s 753 mmHg 46%
    14:00 +16°C° 0 mm 3 m/s 753 mmHg 46%
    15:00 +16°C° 0 mm 3 m/s 752 mmHg 47%
    16:00 +16°C° 0 mm 3 m/s 751 mmHg 47%
    17:00 +14°C° 0 mm 2 m/s 751 mmHg 52%
    18:00 +12°C° 0 mm 2 m/s 751 mmHg 57%
    19:00 +11°C° 0 mm 1 m/s 751 mmHg 63%
    20:00 +9°C° 0 mm 2 m/s 750 mmHg 64%
    21:00 +9°C° 0 mm 2 m/s 750 mmHg 66%
    22:00 +8°C° 0 mm 2 m/s 750 mmHg 67%
    23:00 +8°C° 0 mm 2 m/s 749 mmHg 68%
    Mostrar mais